Flag for India Weather past 2 weeks in Kapurthala, Punjab, India

Now
82 °F

Fog.


Feels Like: 92 °F
Forecast: 76 / 101 °F
Wind: No wind

Location: Amritsar Airport

Current Time: Aug 24, 2014 at 1:49:41 AM

Latest Report: Aug 24, 2014 at 1:00 AM


Visibility: 2 mi

Pressure: 29.65 "Hg

Humidity: 89%

Dew point: 79 °F

Location of KapurthalaLocation

Historic Weather in Kapurthala — Graph

°F

Kapurthala temperature yesterday

Maximum temperature yesterday: 93 °F (at 1:30 PM)
Minimum temperature yesterday: 84 °F (at 8:30 PM)
Average temperature yesterday: 87 °F

Past Weeks' High & Low Weather Summary

 TemperatureHumidityPressure
High97 °F (Aug 11, 2:00 PM)100% (Aug 9, 12:30 AM)29.80 "Hg (Aug 9, 12:30 AM)
Low73 °F (Aug 16, 9:30 AM)41% (Aug 21, 12:00 PM)29.39 "Hg (Aug 14, 6:00 PM)
Average86 °F80%29.59 "Hg
* Reported Aug 9 12:30 AM — Aug 24 12:30 AM, Kapurthala, Weather by CustomWeather, © 2014

Note: Actual official high and low records may vary slightly from our data, if they occured in-between our weather recording intervals... More about our weather records

Advertising

Kapurthala weather history for previous 24 hours

 ConditionsComfort  
Time TempWeatherWind HumidityBarometerVisibility
12:30 AM
Aug 24
82 °FFog.No wind89%29.65 "Hg2 mi
12:00 AM82 °FFog.No wind89%29.65 "Hg2 mi
11:30 PM
Aug 23
84 °FFog.No wind84%29.68 "Hg2 mi
11:00 PM84 °FFog.No wind84%29.68 "Hg2 mi
10:30 PM84 °FFog.No wind84%29.68 "Hg2 mi
10:00 PM84 °FFog.No wind84%29.68 "Hg2 mi
9:30 PM84 °FFog.No wind84%29.68 "Hg2 mi
9:00 PM84 °FFog.No wind79%29.68 "Hg2 mi
8:30 PM84 °FFog.No wind84%29.65 "Hg2 mi
8:00 PM86 °FHaze.No wind75%29.65 "Hg2 mi
7:30 PM86 °FHaze.No wind75%29.65 "Hg2 mi
7:00 PM88 °FHaze.3 mph70%29.65 "Hg3 mi
6:30 PM90 °FHaze.6 mph63%29.65 "Hg3 mi
6:00 PM90 °FHaze.8 mph63%29.65 "Hg3 mi
5:30 PM91 °FHaze.8 mph63%29.65 "Hg3 mi
4:00 PM93 °FHaze.8 mph56%29.65 "Hg3 mi
2:30 PM93 °FHaze.8 mph56%29.71 "Hg3 mi
1:30 PM93 °FScattered clouds.9 mph53%29.71 "Hg3 mi
Weather by CustomWeather, © 2014

See weather overviewHow to use our weather pages